Back to catalog

CAPELLA-14

ACADIA

AliveScienceVLEO
NORAD 59444·PAYLOAD·🇺🇸 United States

Launched Apr 7, 2024 from Cape Canaveral Space Force Station

Loading…

Next Passes (next 24 hours)

TLE

FreshSource: Space-Track

Epoch: Sep 14, 2026, 01:19 UTC

1 59444U 24066C   26257.05501212  .00009477  00000-0  65936-3 0  9991
2 59444  45.6025 149.7785 0001003 227.4513 132.6287 15.05815066125890

Track CAPELLA-14 in real time with AllMySat

Download on the App Store